Location: Killam
(52.7910°N, 111.8608°W)
Time: 16:18:02
(UTC+00:00)

Injun/Solrad 3 - Pass Details

Date: 19 February 2026
Orbit: 872 x 984 km, 66.8° (Epoch: 8 March)

Event Time Altitude Azimuth Distance (km) Brightness Sun altitude
Rises 02:53:01 0° 319° (NW) 3,560 11.7 -19.8°
Reaches altitude 10° 02:55:31 10° 319° (NW) 2,631 10.9 -20.2°
Maximum altitude 03:01:38 76° 235° (SW) 975 8.0 -21.1°
Enters shadow 03:05:41 23° 153° (SSE) 1,894 9.2 -21.7°
